K4PAD Weather Reports


time (UTC)temp
C
wind
direction
speed
KPH
gust
KPH
rain 1hr
cm
rain 24hr
cm
rain mn
cm
humidity
%
barometer
mb
20260510123012 22 34 0.0 1.6 0.00 0.00 0.00 99 1017.3
20260510122509 21 7 0.0 1.6 0.00 0.00 0.00 99 1017.0
20260510122004 21 48 0.0 0.0 0.00 0.00 0.00 99 1017.1
20260510121502 21 45 0.0 0.0 0.00 0.00 0.00 99 1017.2
20260510120959 21 37 0.0 0.0 0.00 0.00 0.00 99 1017.2
20260510120456 21 27 0.0 0.0 0.00 0.00 0.00 99 1016.8
20260510115952 21 3 1.6 1.6 0.00 0.00 0.00 99 1017.0
20260510115449 21 43 0.0 0.0 0.00 0.00 0.00 99 1017.0
20260510114945 21 46 0.0 0.0 0.00 0.00 0.00 99 1016.9
20260510114442 21 13 0.0 0.0 0.00 0.00 0.00 99 1016.5
20260510113938 21 48 0.0 0.0 0.00 0.00 0.00 99 1016.6
20260510113433 21 51 0.0 0.0 0.00 0.00 0.00 99 1016.6
20260510112931 21 46 0.0 0.0 0.00 0.00 0.00 99 1016.5
20260510112428 21 30 0.0 0.0 0.00 0.00 0.00 99 1016.5
20260510111924 21 41 0.0 0.0 0.00 0.00 0.00 99 1016.5
20260510111420 21 43 0.0 0.0 0.00 0.00 0.00 99 1016.3
20260510110916 21 43 0.0 0.0 0.00 0.00 0.00 99 1016.5
20260510110413 21 22 0.0 0.0 0.00 0.00 0.00 99 1016.1
20260510105908 21 57 0.0 0.0 0.00 0.00 0.00 99 1015.9
20260510105403 21 57 0.0 0.0 0.00 0.00 0.00 99 1015.9
20260510104858 21 58 0.0 0.0 0.00 0.00 0.00 99 1015.7
20260510104355 21 50 0.0 0.0 0.00 0.00 0.00 99 1015.8
20260510103852 21 47 0.0 0.0 0.00 0.00 0.00 99 1015.8
20260510103350 21 47 0.0 0.0 0.00 0.00 0.00 99 1015.7
20260510102845 21 40 0.0 0.0 0.00 0.00 0.00 99 1015.8
20260510102341 21 31 0.0 0.0 0.00 0.00 0.00 99 1015.5
20260510101838 21 30 0.0 0.0 0.00 0.00 0.00 99 1015.6
20260510101337 21 56 0.0 0.0 0.00 0.00 0.00 99 1015.5
20260510100832 21 50 0.0 0.0 0.00 0.00 0.00 99 1015.6
20260510100331 21 55 0.0 0.0 0.00 0.00 0.00 99 1015.5
20260510095826 21 54 0.0 0.0 0.00 0.00 0.00 99 1015.6
20260510095321 21 42 0.0 0.0 0.00 0.00 0.00 99 1015.7
20260510094820 21 29 0.0 0.0 0.00 0.00 0.00 99 1015.4
20260510094315 21 55 0.0 0.0 0.00 0.00 0.00 99 1015.2
20260510093812 21 64 0.0 0.0 0.00 0.00 0.00 99 1015.1
20260510093308 21 70 0.0 0.0 0.00 0.00 0.00 99 1015.0
20260510092805 21 68 0.0 0.0 0.00 0.00 0.00 99 1015.1
20260510092301 21 68 0.0 0.0 0.00 0.00 0.00 99 1015.2
20260510091756 21 65 0.0 0.0 0.00 0.00 0.00 99 1015.0
20260510091254 21 64 0.0 0.0 0.00 0.00 0.00 99 1014.9
20260510090750 21 65 0.0 0.0 0.00 0.00 0.00 99 1014.7
20260510090247 21 66 0.0 0.0 0.00 0.00 0.00 99 1014.7
20260510085743 21 66 0.0 0.0 0.00 0.00 0.00 99 1014.9
20260510085237 21 68 0.0 0.0 0.00 0.00 0.00 99 1014.9
20260510084734 21 70 0.0 0.0 0.00 0.00 0.00 99 1014.8
20260510084231 21 39 0.0 0.0 0.00 0.00 0.00 99 1014.8
20260510083727 21 60 0.0 0.0 0.00 0.00 0.00 99 1014.4
20260510083224 21 56 0.0 0.0 0.00 0.00 0.00 99 1014.5
20260510082720 21 57 0.0 0.0 0.00 0.00 0.00 99 1014.3
20260510082217 21 92 0.0 0.0 0.00 0.00 0.00 99 1014.4
20260510081710 21 58 0.0 0.0 0.00 0.00 0.00 99 1014.5
20260510081207 21 48 0.0 0.0 0.00 0.00 0.00 99 1014.4
20260510080706 21 48 0.0 0.0 0.00 0.00 0.00 99 1014.4
20260510080203 21 61 0.0 0.0 0.00 0.00 0.00 99 1014.6
20260510075700 21 70 0.0 0.0 0.00 0.00 0.00 99 1014.4
20260510075158 21 59 0.0 0.0 0.00 0.00 0.00 99 1014.7
20260510074655 21 58 0.0 0.0 0.00 0.00 0.00 99 1014.6
20260510074150 21 49 0.0 0.0 0.00 0.00 0.00 99 1014.7
20260510073647 21 50 0.0 0.0 0.00 0.00 0.00 99 1014.6
20260510073143 21 75 0.0 0.0 0.00 0.00 0.00 99 1014.7
20260510072639 21 93 0.0 0.0 0.00 0.00 0.00 99 1014.5
20260510072136 21 173 0.0 0.0 0.00 0.00 0.00 99 1014.7
20260510071631 21 78 0.0 0.0 0.00 0.00 0.00 99 1014.4
20260510071130 21 95 0.0 0.0 0.00 0.00 0.00 99 1014.4
20260510070627 21 124 0.0 0.0 0.00 0.00 0.00 99 1014.4
20260510070124 21 119 0.0 0.0 0.00 0.00 0.00 99 1014.5
20260510065620 21 93 0.0 0.0 0.00 0.00 0.00 99 1014.3
20260510065116 21 93 0.0 0.0 0.00 0.00 0.00 99 1014.4
20260510064613 21 93 0.0 0.0 0.00 0.00 0.00 99 1014.5
20260510064110 21 99 0.0 0.0 0.00 0.00 0.00 99 1014.5
20260510063607 21 89 0.0 0.0 0.00 0.00 0.00 99 1014.6
20260510063104 21 198 1.6 1.6 0.00 0.00 0.00 99 1014.7
20260510062559 21 101 0.0 0.0 0.00 0.00 0.00 99 1014.9
20260510062054 21 100 0.0 0.0 0.00 0.00 0.00 99 1014.7
20260510061551 21 95 0.0 0.0 0.00 0.00 0.00 99 1014.8
20260510061048 21 74 0.0 0.0 0.00 0.00 0.00 99 1014.6
20260510060544 21 79 0.0 0.0 0.00 0.00 0.00 99 1014.7
20260510060040 21 78 0.0 0.0 0.00 0.00 0.00 99 1014.8
20260510055537 21 76 0.0 0.0 0.00 0.00 0.00 99 1015.1
20260510055035 21 85 0.0 0.0 0.00 0.00 0.00 98 1015.2
20260510054531 21 68 0.0 0.0 0.00 0.00 0.00 98 1015.2
20260510054026 21 212 0.0 1.6 0.00 0.00 0.00 98 1015.1
20260510053521 21 77 0.0 0.0 0.00 0.00 0.00 98 1015.1
20260510053018 21 60 0.0 0.0 0.00 0.00 0.00 98 1015.3
20260510052514 21 76 0.0 0.0 0.00 0.00 0.00 98 1015.3
20260510052010 21 76 0.0 0.0 0.00 0.00 0.00 98 1015.5
20260510051505 21 77 0.0 0.0 0.00 0.00 0.00 99 1015.3
20260510051002 21 81 0.0 0.0 0.00 0.00 0.00 99 1015.5
20260510050500 21 67 0.0 0.0 0.00 0.00 0.00 98 1015.6
20260510045956 21 62 0.0 0.0 0.00 0.00 0.00 98 1016.0
20260510045454 20 82 0.0 0.0 0.00 0.00 0.00 98 1016.0
20260510044950 20 76 0.0 0.0 0.00 0.00 0.00 98 1015.9
20260510044447 20 75 0.0 0.0 0.00 0.00 0.00 98 1016.2
20260510043944 20 75 0.0 0.0 0.00 0.00 0.00 98 1016.2
20260510043439 20 78 0.0 0.0 0.00 0.00 0.00 98 1016.0
20260510042938 20 73 0.0 0.0 0.00 0.00 0.00 98 1015.8
20260510042434 20 73 0.0 0.0 0.00 0.00 0.00 98 1015.9
20260510041929 20 71 0.0 0.0 0.00 0.00 0.00 98 1015.8
20260510041427 20 76 0.0 0.0 0.00 0.00 0.00 98 1015.9
20260510040925 21 76 0.0 0.0 0.00 0.00 0.00 98 1016.0
20260510040421 21 77 0.0 0.0 0.00 0.00 0.00 98 1016.0
20260510035916 21 77 0.0 0.0 0.00 0.28 0.28 98 1015.9
20260510035413 21 72 0.0 0.0 0.00 0.28 0.28 98 1015.9
20260510034908 21 72 0.0 0.0 0.00 0.28 0.28 98 1016.1
20260510034407 21 73 0.0 0.0 0.00 0.28 0.28 98 1015.8
20260510033908 21 65 0.0 0.0 0.00 0.28 0.28 98 1016.1
20260510033404 21 71 0.0 0.0 0.00 0.28 0.28 98 1016.3
20260510032901 21 68 0.0 0.0 0.00 0.28 0.28 98 1016.2
20260510032358 21 79 0.0 0.0 0.00 0.28 0.28 98 1016.1
20260510031853 21 79 0.0 0.0 0.00 0.28 0.28 98 1016.1
20260510031349 21 77 0.0 0.0 0.00 0.28 0.28 98 1016.0
20260510030849 21 76 0.0 0.0 0.00 0.28 0.28 98 1016.1
20260510030345 21 83 0.0 0.0 0.00 0.28 0.28 98 1016.0
20260510025843 21 79 0.0 0.0 0.00 0.28 0.28 98 1015.9
20260510025340 21 76 0.0 0.0 0.00 0.28 0.28 98 1016.0
20260510024837 21 76 0.0 0.0 0.00 0.28 0.28 98 1015.9
20260510024334 21 81 0.0 0.0 0.00 0.28 0.28 98 1015.6
20260510023830 21 82 0.0 0.0 0.00 0.28 0.28 98 1015.8
20260510023326 21 82 0.0 0.0 0.00 0.28 0.28 98 1015.6
20260510022824 21 116 0.0 0.0 0.00 0.28 0.28 98 1015.9
20260510022323 21 201 1.6 1.6 0.00 0.28 0.28 97 1015.5
20260510021822 21 110 0.0 0.0 0.00 0.28 0.28 97 1015.1
20260510021320 21 163 0.0 0.0 0.00 0.28 0.28 97 1015.3
20260510020816 21 17 0.0 0.0 0.00 0.28 0.28 97 1015.2
20260510020311 21 74 0.0 0.0 0.00 0.28 0.28 97 1015.0
20260510015807 21 60 0.0 0.0 0.00 0.28 0.28 97 1015.0
20260510015306 21 105 0.0 0.0 0.00 0.28 0.28 97 1014.9
20260510014758 21 92 0.0 0.0 0.00 0.28 0.28 97 1015.0
20260510014256 21 92 0.0 0.0 0.00 0.28 0.28 97 1014.7
20260510013752 21 106 0.0 0.0 0.00 0.28 0.28 97 1014.5
20260510013248 21 107 0.0 0.0 0.00 0.28 0.28 97 1014.3
20260510012743 21 59 0.0 0.0 0.00 0.28 0.28 97 1014.3
20260510012238 21 86 0.0 0.0 0.00 0.28 0.28 97 1014.5
20260510011737 21 52 0.0 0.0 0.18 0.28 0.28 97 1014.4
20260510011233 21 167 0.0 1.6 0.18 0.28 0.28 97 1014.5
20260510010730 21 75 0.0 0.0 0.00 0.25 0.25 97 1014.6
20260510010226 21 52 0.0 0.0 0.00 0.25 0.25 97 1014.5
20260510005723 21 147 0.0 0.0 0.00 0.25 0.25 96 1014.6
20260510005220 21 75 0.0 0.0 0.00 0.25 0.25 96 1014.5
20260510004718 21 107 0.0 0.0 0.00 0.25 0.25 96 1014.7
20260510004216 21 87 0.0 0.0 0.00 0.25 0.25 96 1014.6
20260510003713 21 87 0.0 0.0 0.00 0.25 0.25 96 1014.5
20260510003209 21 76 0.0 0.0 0.00 0.25 0.25 96 1014.4
20260510002708 21 45 0.0 0.0 0.00 0.25 0.25 96 1014.4
20260510002205 21 63 1.6 1.6 0.00 0.25 0.25 96 1014.6
20260510001702 21 234 1.6 1.6 0.00 0.25 0.25 96 1015.0
20260510001202 21 9 0.0 0.0 0.00 0.25 0.25 96 1014.6
20260510000702 21 25 0.0 0.0 0.00 0.25 0.25 95 1014.8
20260510000159 21 308 0.0 1.6 0.00 0.25 0.25 95 1015.2
20260509235656 21 169 0.0 1.6 0.00 0.25 0.25 95 1015.0
20260509235152 21 255 0.0 0.0 0.00 0.25 0.25 95 1015.1
20260509234648 21 235 1.6 3.2 0.00 0.25 0.25 95 1015.2
20260509234146 21 160 0.0 0.0 0.18 0.25 0.25 95 1015.3
20260509233644 21 24 0.0 0.0 0.18 0.25 0.25 94 1015.3
20260509233141 21 192 1.6 1.6 0.00 0.23 0.23 94 1015.1
20260509232637 21 181 1.6 1.6 0.00 0.23 0.23 94 1015.4
20260509232134 21 298 0.0 1.6 0.00 0.23 0.23 94 1015.3
20260509231630 21 167 0.0 1.6 0.13 0.23 0.23 94 1015.2
20260509231128 22 330 0.0 1.6 0.13 0.23 0.23 93 1015.3
20260509230625 22 53 0.0 0.0 0.00 0.20 0.20 93 1015.2
20260509230122 22 30 0.0 0.0 0.00 0.20 0.20 93 1015.0
20260509225618 22 32 0.0 0.0 0.00 0.20 0.20 93 1015.0
20260509225113 21 56 0.0 0.0 0.00 0.20 0.20 93 1014.9
20260509224608 21 85 0.0 0.0 0.00 0.20 0.20 93 1014.6
20260509224106 21 90 1.6 1.6 0.00 0.20 0.20 93 1014.7
20260509223603 22 83 0.0 1.6 0.00 0.20 0.20 93 1015.0
20260509223100 22 71 0.0 0.0 0.00 0.20 0.20 93 1014.8
20260509222556 22 43 1.6 1.6 0.00 0.20 0.20 93 1014.9
20260509222052 22 46 0.0 1.6 0.00 0.20 0.20 93 1014.8
20260509221548 22 55 0.0 0.0 0.00 0.20 0.20 93 1014.8
20260509221044 22 332 0.0 1.6 0.00 0.20 0.20 93 1014.9
20260509220540 22 18 1.6 1.6 0.00 0.20 0.20 93 1014.7
20260509220037 22 16 4.8 4.8 0.00 0.20 0.20 93 1014.8
20260509215532 22 29 1.6 1.6 0.00 0.20 0.20 93 1014.7
20260509215030 22 24 1.6 1.6 0.00 0.20 0.20 93 1014.9
20260509214527 22 50 1.6 3.2 0.00 0.20 0.20 93 1014.9
20260509214024 22 75 1.6 1.6 0.00 0.20 0.20 94 1014.7
20260509213520 22 21 4.8 4.8 0.00 0.20 0.20 94 1014.5
20260509213017 22 35 6.4 8.0 0.00 0.20 0.20 94 1014.4
20260509212514 22 157 1.6 1.6 0.00 0.20 0.20 94 1014.5
20260509212011 22 47 0.0 1.6 0.00 0.20 0.20 94 1014.3
20260509211506 22 327 3.2 4.8 0.00 0.20 0.20 94 1014.4
20260509211003 22 80 3.2 4.8 0.00 0.20 0.20 94 1014.5
20260509210500 22 205 1.6 1.6 0.00 0.20 0.20 93 1014.5
20260509205955 22 63 0.0 1.6 0.00 0.20 0.20 93 1014.3
20260509205450 22 327 3.2 3.2 0.00 0.20 0.20 93 1014.2
20260509204946 22 67 1.6 1.6 0.00 0.20 0.20 93 1014.0
20260509204443 22 100 0.0 0.0 0.00 0.20 0.20 93 1014.3
20260509203939 22 18 3.2 3.2 0.00 0.20 0.20 92 1014.5
20260509203435 22 10 3.2 3.2 0.00 0.20 0.20 93 1014.6
20260509202933 22 34 0.0 0.0 0.00 0.20 0.20 92 1014.6
20260509202429 22 331 3.2 4.8 0.00 0.20 0.20 92 1014.5
20260509201924 23 240 4.8 4.8 0.00 0.20 0.20 92 1014.6
20260509201419 23 178 4.8 4.8 0.00 0.20 0.20 93 1014.5
20260509200917 23 2 4.8 4.8 0.00 0.20 0.20 93 1014.5
20260509200416 23 247 6.4 9.7 0.00 0.20 0.20 93 1014.3
20260509195914 24 207 4.8 4.8 0.48 0.20 0.20 93 1014.4
20260509195409 23 47 0.0 1.6 0.48 0.20 0.20 93 1014.2
20260509194908 24 225 0.0 1.6 0.00 0.13 0.13 92 1014.3
20260509194405 24 337 3.2 4.8 0.00 0.13 0.13 92 1014.2
20260509193901 23 184 0.0 1.6 0.00 0.13 0.13 93 1014.3
20260509193355 23 116 0.0 0.0 0.00 0.13 0.13 92 1014.3
20260509192852 23 175 0.0 0.0 0.13 0.13 0.13 92 1014.4
20260509192348 23 209 0.0 1.6 0.13 0.13 0.13 91 1014.5
20260509191843 23 202 1.6 3.2 0.00 0.10 0.10 91 1014.4
20260509191339 23 195 3.2 3.2 0.00 0.10 0.10 91 1014.5
20260509190835 23 209 3.2 3.2 0.00 0.10 0.10 90 1014.5
20260509190332 24 231 1.6 1.6 0.18 0.10 0.10 90 1014.4
20260509185830 24 234 8.0 9.7 0.30 0.10 0.10 91 1014.4
20260509185321 24 203 0.0 1.6 0.13 0.08 0.08 90 1014.3
20260509184819 24 189 1.6 1.6 0.00 0.05 0.05 89 1014.4
20260509184315 25 157 1.6 1.6 0.18 0.05 0.05 87 1014.4
20260509183811 25 126 1.6 1.6 0.18 0.05 0.05 84 1014.5
20260509183307 26 167 1.6 1.6 0.00 0.03 0.03 80 1014.4
20260509182802 26 303 3.2 4.8 0.00 0.03 0.03 76 1014.3
20260509182300 27 209 3.2 4.8 0.00 0.03 0.03 72 1014.4
20260509181757 27 32 0.0 1.6 0.00 0.03 0.03 72 1014.3
20260509181255 27 3 1.6 1.6 0.00 0.03 0.03 72 1014.4
20260509180752 27 134 1.6 3.2 0.00 0.03 0.03 72 1014.4
20260509180248 27 269 4.8 4.8 0.00 0.03 0.03 71 1014.4
20260509175744 27 235 8.0 9.7 0.00 0.03 0.03 71 1014.6
20260509175241 27 179 1.6 1.6 0.00 0.03 0.03 72 1014.7
20260509174737 27 154 0.0 1.6 0.00 0.03 0.03 72 1014.5
20260509174233 27 223 1.6 1.6 0.00 0.03 0.03 71 1014.7
20260509173729 27 85 1.6 1.6 0.00 0.03 0.03 72 1014.5
20260509173224 27 167 1.6 1.6 0.00 0.03 0.03 73 1014.8
20260509172721 27 193 3.2 3.2 0.00 0.03 0.03 72 1014.8
20260509172217 27 179 1.6 1.6 0.00 0.03 0.03 73 1014.8
20260509171712 27 186 4.8 8.0 0.00 0.03 0.03 73 1014.7
20260509171209 27 284 4.8 4.8 0.00 0.03 0.03 72 1014.7
20260509170706 27 198 1.6 1.6 0.00 0.03 0.03 73 1014.7
20260509170202 27 221 0.0 1.6 0.00 0.03 0.03 75 1014.9
20260509165700 27 46 1.6 1.6 0.00 0.03 0.03 74 1014.9
20260509165156 27 257 1.6 1.6 0.00 0.03 0.03 75 1014.7
20260509164652 26 59 0.0 0.0 0.00 0.03 0.03 77 1014.7
20260509164148 26 217 3.2 3.2 0.00 0.03 0.03 77 1014.8
20260509163646 26 41 0.0 0.0 0.00 0.03 0.03 78 1014.9
20260509163141 26 170 1.6 1.6 0.00 0.03 0.03 78 1015.0
20260509162640 26 76 1.6 1.6 0.00 0.03 0.03 78 1014.9
20260509162135 26 67 0.0 1.6 0.00 0.03 0.03 80 1015.2
20260509161632 26 41 0.0 0.0 0.00 0.03 0.03 79 1015.2
20260509161127 25 30 0.0 1.6 0.00 0.03 0.03 79 1015.3
20260509160623 25 27 1.6 1.6 0.00 0.03 0.03 79 1015.1
20260509160118 25 333 0.0 1.6 0.00 0.03 0.03 80 1015.3
20260509155615 25 153 1.6 1.6 0.00 0.03 0.03 80 1015.4
20260509155111 25 49 0.0 0.0 0.00 0.03 0.03 81 1015.4
20260509154607 25 34 0.0 0.0 0.00 0.03 0.03 82 1015.3
20260509154104 25 68 1.6 1.6 0.00 0.03 0.03 81 1015.2
20260509153601 25 70 0.0 0.0 0.00 0.03 0.03 83 1014.9
20260509153058 25 54 0.0 1.6 0.00 0.03 0.03 82 1015.1
20260509152554 25 63 0.0 0.0 0.00 0.03 0.03 82 1015.2
20260509152052 25 109 0.0 1.6 0.00 0.03 0.03 82 1015.3
20260509151547 25 48 0.0 0.0 0.00 0.03 0.03 82 1015.1
20260509151045 25 20 0.0 0.0 0.00 0.03 0.03 83 1014.9
20260509150543 25 87 0.0 0.0 0.00 0.03 0.03 82 1015.2
20260509150041 25 104 0.0 1.6 0.00 0.03 0.03 81 1015.2
20260509145536 25 212 1.6 1.6 0.00 0.03 0.03 82 1015.3
20260509145031 25 242 1.6 1.6 0.00 0.03 0.03 82 1015.5
20260509144529 25 207 0.0 1.6 0.00 0.03 0.03 82 1015.2
20260509144026 25 34 0.0 1.6 0.00 0.03 0.03 83 1015.4
20260509143523 24 91 1.6 1.6 0.00 0.03 0.03 83 1015.3
20260509143021 24 213 3.2 4.8 0.00 0.03 0.03 83 1015.1
20260509142516 24 189 4.8 4.8 0.00 0.03 0.03 82 1015.3
20260509142012 24 38 0.0 1.6 0.00 0.03 0.03 83 1015.5
20260509141509 24 42 1.6 1.6 0.00 0.03 0.03 84 1015.0
20260509141005 23 81 0.0 0.0 0.00 0.03 0.03 85 1014.9
20260509140502 24 236 1.6 3.2 0.00 0.03 0.03 84 1015.0
20260509140000 23 213 1.6 1.6 0.00 0.03 0.03 87 1015.0
20260509135457 23 173 1.6 1.6 0.00 0.03 0.03 85 1015.2
20260509134954 23 47 0.0 0.0 0.00 0.03 0.03 86 1015.0
20260509134451 22 157 0.0 1.6 0.00 0.03 0.03 87 1015.2
20260509133949 22 102 1.6 1.6 0.00 0.03 0.03 87 1015.1
20260509133445 22 207 1.6 1.6 0.00 0.03 0.03 87 1015.3
20260509132943 22 270 6.4 8.0 0.00 0.03 0.03 88 1015.3
20260509132441 22 174 1.6 3.2 0.00 0.03 0.03 88 1015.3
20260509131938 22 208 3.2 3.2 0.00 0.03 0.03 87 1015.2
20260509131435 22 330 0.0 0.0 0.00 0.03 0.03 88 1015.2
20260509130932 22 51 0.0 0.0 0.00 0.03 0.03 88 1014.9
20260509130427 22 93 0.0 0.0 0.00 0.03 0.03 88 1014.8
20260509125925 22 222 1.6 1.6 0.00 0.03 0.03 88 1014.8
20260509125421 22 252 1.6 1.6 0.00 0.03 0.03 88 1015.0
20260509124917 22 35 0.0 0.0 0.00 0.03 0.03 89 1014.7
20260509124414 21 111 0.0 1.6 0.00 0.03 0.03 90 1014.5
20260509123912 21 85 0.0 0.0 0.00 0.03 0.03 90 1014.6
20260509123409 21 218 1.6 3.2 0.00 0.03 0.03 90 1014.8